Flag for Germany Weather past 2 weeks in Warstein, North Rhine-Westphalia, Germany

Now
34 °F

Clear.


Feels Like: 31 °F
Forecast: 42 / 48 °F
Wind: 3 mph from Southeast

Location: Paderborn / Lippstadt

Current Time: Mar 28, 2015 at 7:15:04 AM

Latest Report: Mar 28, 2015 at 6:50 AM


Visibility: 5 mi

Pressure: 30.15 "Hg

Humidity: 87%

Dew point: 30 °F

Location of WarsteinLocation

Historic Weather in Warstein — Graph

°F

Warstein temperature yesterday

Maximum temperature yesterday: 43 °F (at 12:20 PM)
Minimum temperature yesterday: 39 °F (at 6:20 AM)
Average temperature yesterday: 41 °F

Past Weeks' High & Low Weather Summary

 TemperatureHumidityPressure
High59 °F (Mar 17, 3:20 PM)100% (Mar 13, 7:50 AM)30.36 "Hg (Mar 13, 7:50 AM)
Low28 °F (Mar 23, 2:50 AM)41% (Mar 25, 11:50 AM)29.62 "Hg (Mar 25, 6:20 AM)
Average41 °F83%30.11 "Hg
* Reported Mar 13 6:20 AM — Mar 28 6:20 AM, Warstein, Weather by CustomWeather, © 2015

Note: Actual official high and low records may vary slightly from our data, if they occured in-between our weather recording intervals... More about our weather records

Advertising

Warstein weather history for previous 24 hours

 ConditionsComfort  
Time TempWeatherWind HumidityBarometerVisibility
6:20 AM
Sat, Mar 28
36 °FClear.3 mph81%30.15 "Hg5 mi
5:50 AM34 °FClear.2 mph87%30.18 "Hg10 mi
5:20 AM36 °FClear.2 mph81%30.18 "Hg10 mi
4:50 AM32 °FClear.5 mph87%30.18 "Hg10 mi
4:20 AM36 °FClear.7 mph87%30.18 "Hg10 mi
3:50 AM36 °FClear.8 mph87%30.18 "Hg10 mi
3:20 AM32 °FPassing clouds.7 mph93%30.18 "HgN/A
2:50 AM34 °FPassing clouds.7 mph93%30.18 "HgN/A
2:20 AM36 °FPartly cloudy.8 mph87%30.18 "HgN/A
1:50 AM37 °FPartly cloudy.6 mph87%30.18 "HgN/A
1:20 AM39 °FPassing clouds.5 mph81%30.18 "HgN/A
12:50 AM39 °FPartly cloudy.6 mph87%30.18 "HgN/A
12:20 AM39 °FPartly cloudy.5 mph87%30.18 "HgN/A
11:50 PM
Fri, Mar 27
39 °FPassing clouds.6 mph87%30.18 "HgN/A
11:20 PM39 °FPassing clouds.7 mph87%30.18 "HgN/A
10:50 PM39 °FPassing clouds.7 mph87%30.18 "HgN/A
10:20 PM39 °FPassing clouds.8 mph87%30.18 "HgN/A
9:50 PM39 °FPartly cloudy.12 mph87%30.15 "HgN/A
9:20 PM39 °FLight rain. Partly cloudy.7 mph87%30.15 "HgN/A
8:50 PM39 °FLight rain. Partly cloudy.8 mph81%30.15 "HgN/A
8:20 PM41 °FRain. Partly cloudy.9 mph87%30.15 "HgN/A
7:50 PM41 °FPartly cloudy.8 mph81%30.12 "HgN/A
7:20 PM41 °FPartly cloudy.9 mph81%30.12 "HgN/A
6:50 PM41 °FLight rain. Passing clouds.8 mph87%30.09 "HgN/A
6:20 PM41 °FLight rain. Partly sunny.9 mph87%30.09 "HgN/A
5:50 PM43 °FPartly sunny.12 mph76%30.07 "HgN/A
5:20 PM41 °FBroken clouds.13 mph81%30.07 "HgN/A
4:50 PM43 °FBroken clouds.12 mph76%30.04 "HgN/A
4:20 PM43 °FBroken clouds.13 mph76%30.04 "HgN/A
3:50 PM41 °FBroken clouds.13 mph87%30.01 "HgN/A
3:20 PM41 °FScattered showers. Broken clouds.14 mph81%30.01 "HgN/A
2:50 PM43 °FScattered showers. Broken clouds.13 mph76%29.98 "HgN/A
2:20 PM41 °FScattered showers. Broken clouds.13 mph87%29.98 "HgN/A
1:50 PM43 °FBroken clouds.15 mph76%29.98 "HgN/A
1:20 PM41 °FBroken clouds.20 mph81%29.98 "HgN/A
12:50 PM43 °FBroken clouds.18 mph76%29.95 "HgN/A
12:20 PM43 °FBroken clouds.14 mph71%29.95 "HgN/A
11:50 AM41 °FBroken clouds.18 mph81%29.95 "HgN/A
11:20 AM41 °FBroken clouds.15 mph76%29.95 "HgN/A
10:50 AM41 °FBroken clouds.16 mph81%29.92 "HgN/A
10:20 AM39 °FBroken clouds.13 mph87%29.92 "HgN/A
9:50 AM39 °FBroken clouds.15 mph87%29.92 "HgN/A
9:20 AM39 °FRain showers. Broken clouds.12 mph87%29.89 "Hg4 mi
8:50 AM39 °FBroken clouds.15 mph87%29.89 "HgN/A
8:20 AM41 °FBroken clouds.13 mph81%29.89 "HgN/A
7:50 AM39 °FBroken clouds.12 mph87%29.86 "HgN/A
7:20 AM39 °FLight rain. Broken clouds.12 mph87%29.86 "Hg5 mi
Weather by CustomWeather, © 2015

See weather overviewHow to use our weather pages